Terminal Aerodrome Forecast
Issued by NWS Boston, MA

Home | Current Version | Previous Version | Text Only | Print | Product List | Glossary On
Versions: 1 2 3 4 5 6 7 8 9 10 11 12 13 14 15 16 17 18 19 20 21
000
FTUS41 KBOX 180928 AAA
TAFPVD
TAF AMD
KPVD 180928Z 1809/1906 VRB03KT P6SM VCSH OVC025
     FM181900 17005KT P6SM OVC015
     FM190200 25005KT P6SM OVC040=

USA.gov is the U.S. government's official web portal to all federal, state and local government web resources and services.